Hourly Weather Abay

Today, 19 October, Monday

Time Temperature Precipitation Wind Pressure Humidity
00:00 +10°C° 0 mm 2 mps 723 mmHg 30%
01:00 +10°C° 0 mm 2 mps 723 mmHg 31%
02:00 +9°C° 0 mm 2 mps 722 mmHg 33%
03:00 +9°C° 0 mm 2 mps 723 mmHg 33%
04:00 +8°C° 0 mm 2 mps 723 mmHg 34%
05:00 +8°C° 0 mm 2 mps 723 mmHg 37%
06:00 +9°C° 0 mm 2 mps 723 mmHg 34%
07:00 +10°C° 0 mm 2 mps 723 mmHg 32%
08:00 +12°C° 0 mm 2 mps 723 mmHg 29%
09:00 +16°C° 0 mm 3 mps 723 mmHg 25%
10:00 +19°C° 0 mm 5 mps 723 mmHg 20%
11:00 +22°C° 0 mm 6 mps 723 mmHg 15%
12:00 +23°C° 0 mm 7 mps 722 mmHg 14%
13:00 +24°C° 0 mm 7 mps 721 mmHg 13%
14:00 +26°C° 0 mm 8 mps 720 mmHg 12%
15:00 +23°C° 0 mm 7 mps 720 mmHg 13%
16:00 +22°C° 0 mm 6 mps 720 mmHg 13%
17:00 +21°C° 0 mm 5 mps 720 mmHg 13%
18:00 +19°C° 0 mm 5 mps 719 mmHg 16%
19:00 +16°C° 0 mm 5 mps 718 mmHg 19%
20:00 +14°C° 0 mm 4 mps 718 mmHg 21%
21:00 +12°C° 0 mm 3 mps 718 mmHg 24%
22:00 +11°C° 0 mm 3 mps 717 mmHg 26%
23:00 +10°C° 0 mm 2 mps 717 mmHg 28%

Tomorrow, 20 October, Tuesday

Time Temperature Precipitation Wind Pressure Humidity
00:00 +9°C° 0 mm 2 mps 716 mmHg 30%
01:00 +8°C° 0 mm 2 mps 715 mmHg 32%
02:00 +7°C° 0 mm 2 mps 715 mmHg 34%
03:00 +6°C° 0 mm 2 mps 715 mmHg 36%
04:00 +6°C° 0 mm 2 mps 715 mmHg 38%
05:00 +6°C° 0 mm 2 mps 715 mmHg 40%
06:00 +7°C° 0 mm 2 mps 715 mmHg 37%
07:00 +8°C° 0 mm 2 mps 715 mmHg 35%
08:00 +9°C° 0 mm 2 mps 715 mmHg 33%
09:00 +13°C° 0 mm 2 mps 715 mmHg 28%
10:00 +15°C° 0 mm 2 mps 715 mmHg 24%
11:00 +17°C° 0 mm 2 mps 715 mmHg 20%
12:00 +19°C° 0 mm 2 mps 715 mmHg 19%
13:00 +21°C° 0 mm 1 mps 715 mmHg 17%
14:00 +22°C° 0 mm 1 mps 715 mmHg 15%
15:00 +21°C° 0 mm 1 mps 715 mmHg 18%
16:00 +19°C° 0 mm 1 mps 715 mmHg 20%
17:00 +15°C° 0 mm 0 mps 715 mmHg 22%
18:00 +15°C° 0 mm 1 mps 715 mmHg 26%
19:00 +13°C° 0 mm 1 mps 715 mmHg 29%
20:00 +12°C° 0 mm 1 mps 715 mmHg 32%
21:00 +13°C° 0 mm 1 mps 715 mmHg 30%
22:00 +13°C° 0 mm 2 mps 715 mmHg 28%
23:00 +13°C° 0 mm 2 mps 715 mmHg 26%

Day after tomorrow, 21 October, Wednesday

Time Temperature Precipitation Wind Pressure Humidity
00:00 +13°C° 0 mm 2 mps 715 mmHg 27%
01:00 +13°C° 0 mm 2 mps 715 mmHg 28%
02:00 +12°C° 0 mm 2 mps 715 mmHg 29%
03:00 +12°C° 0 mm 2 mps 715 mmHg 31%
04:00 +11°C° 0 mm 1 mps 716 mmHg 32%
05:00 +11°C° 0 mm 1 mps 716 mmHg 34%
06:00 +13°C° 0 mm 2 mps 716 mmHg 29%
07:00 +15°C° 0 mm 2 mps 717 mmHg 24%
08:00 +16°C° 0 mm 2 mps 717 mmHg 20%
09:00 +19°C° 0 mm 3 mps 718 mmHg 17%
10:00 +22°C° 0 mm 4 mps 718 mmHg 13%
11:00 +26°C° 0 mm 5 mps 718 mmHg 10%
12:00 +27°C° 0 mm 6 mps 718 mmHg 10%
13:00 +28°C° 0 mm 7 mps 718 mmHg 9%
14:00 +28°C° 0 mm 8 mps 718 mmHg 8%
15:00 +26°C° 0 mm 6 mps 718 mmHg 9%
16:00 +23°C° 0 mm 5 mps 718 mmHg 11%
17:00 +21°C° 0 mm 3 mps 717 mmHg 12%
18:00 +19°C° 0 mm 3 mps 717 mmHg 15%
19:00 +16°C° 0 mm 2 mps 717 mmHg 17%
20:00 +14°C° 0 mm 1 mps 717 mmHg 20%
21:00 +14°C° 0 mm 2 mps 717 mmHg 20%
22:00 +14°C° 0 mm 2 mps 717 mmHg 20%
23:00 +14°C° 0 mm 2 mps 717 mmHg 20%

22 October, Thursday

Time Temperature Precipitation Wind Pressure Humidity
00:00 +13°C° 0 mm 3 mps 717 mmHg 19%
01:00 +14°C° 0 mm 3 mps 717 mmHg 19%
02:00 +14°C° 0 mm 3 mps 717 mmHg 18%
03:00 +13°C° 0 mm 3 mps 717 mmHg 22%
04:00 +12°C° 0 mm 3 mps 717 mmHg 25%
05:00 +11°C° 0 mm 3 mps 718 mmHg 28%
06:00 +12°C° 0 mm 2 mps 718 mmHg 33%
07:00 +12°C° 0 mm 2 mps 719 mmHg 39%
08:00 +12°C° 0 mm 1 mps 719 mmHg 44%
09:00 +13°C° 0 mm 1 mps 719 mmHg 42%
10:00 +14°C° 0 mm 2 mps 720 mmHg 40%
11:00 +15°C° 0 mm 2 mps 720 mmHg 37%
12:00 +14°C° 0 mm 3 mps 719 mmHg 38%
13:00 +16°C° 0 mm 3 mps 719 mmHg 38%
14:00 +16°C° 0 mm 3 mps 718 mmHg 38%
15:00 +14°C° 0 mm 3 mps 718 mmHg 41%
16:00 +14°C° 0 mm 2 mps 718 mmHg 44%
17:00 +13°C° 0 mm 2 mps 718 mmHg 47%
18:00 +12°C° 0 mm 2 mps 718 mmHg 52%
19:00 +11°C° 0 mm 1 mps 718 mmHg 56%
20:00 +9°C° 0 mm 1 mps 718 mmHg 61%
21:00 +9°C° 0 mm 1 mps 718 mmHg 59%
22:00 +8°C° 0 mm 2 mps 718 mmHg 58%
23:00 +7°C° 0 mm 2 mps 717 mmHg 56%

23 October, Friday

Time Temperature Precipitation Wind Pressure Humidity
00:00 +7°C° 0 mm 2 mps 718 mmHg 51%
01:00 +7°C° 0 mm 2 mps 718 mmHg 46%
02:00 +7°C° 0 mm 2 mps 718 mmHg 42%
03:00 +7°C° 0.3 mm 2 mps 718 mmHg 51%
04:00 +5°C° 0.3 mm 3 mps 718 mmHg 60%
05:00 +5°C° 0.3 mm 4 mps 718 mmHg 69%
06:00 +5°C° 0.1 mm 4 mps 718 mmHg 69%
07:00 +5°C° 0.1 mm 3 mps 719 mmHg 69%
08:00 +7°C° 0.1 mm 3 mps 719 mmHg 69%
09:00 +8°C° 0 mm 3 mps 720 mmHg 64%
10:00 +8°C° 0 mm 3 mps 720 mmHg 58%
11:00 +8°C° 0 mm 4 mps 720 mmHg 53%
12:00 +10°C° 0 mm 3 mps 720 mmHg 49%
13:00 +11°C° 0 mm 3 mps 721 mmHg 46%
14:00 +11°C° 0 mm 3 mps 721 mmHg 43%
15:00 +11°C° 0 mm 3 mps 721 mmHg 46%
16:00 +10°C° 0 mm 3 mps 721 mmHg 49%
17:00 +10°C° 0 mm 4 mps 721 mmHg 52%
18:00 +9°C° 0 mm 3 mps 722 mmHg 58%
19:00 +8°C° 0 mm 2 mps 722 mmHg 65%
20:00 +6°C° 0 mm 2 mps 722 mmHg 72%
21:00 +6°C° 0 mm 2 mps 722 mmHg 69%
22:00 +5°C° 0 mm 2 mps 723 mmHg 67%
23:00 +4°C° 0 mm 2 mps 723 mmHg 65%

24 October, Saturday

Time Temperature Precipitation Wind Pressure Humidity
00:00 +5°C° 0 mm 1 mps 723 mmHg 66%
01:00 +4°C° 0 mm 1 mps 723 mmHg 67%
02:00 +2°C° 0 mm 0 mps 723 mmHg 69%
03:00 +3°C° 0 mm 1 mps 723 mmHg 69%
04:00 +3°C° 0 mm 1 mps 723 mmHg 69%
05:00 +3°C° 0 mm 1 mps 723 mmHg 68%
06:00 +4°C° 0 mm 1 mps 723 mmHg 64%
07:00 +5°C° 0 mm 1 mps 724 mmHg 60%
08:00 +6°C° 0 mm 1 mps 724 mmHg 56%
09:00 +8°C° 0 mm 1 mps 724 mmHg 51%
10:00 +9°C° 0 mm 1 mps 724 mmHg 47%
11:00 +11°C° 0 mm 1 mps 724 mmHg 42%
12:00 +12°C° 0 mm 1 mps 724 mmHg 39%
13:00 +12°C° 0 mm 1 mps 724 mmHg 36%
14:00 +13°C° 0 mm 1 mps 724 mmHg 33%
15:00 +12°C° 0 mm 1 mps 724 mmHg 35%
16:00 +12°C° 0 mm 1 mps 724 mmHg 37%
17:00 +11°C° 0 mm 1 mps 724 mmHg 40%
18:00 +8°C° 0 mm 2 mps 724 mmHg 43%
19:00 +7°C° 0 mm 2 mps 724 mmHg 47%
20:00 +6°C° 0 mm 2 mps 725 mmHg 51%
21:00 +6°C° 0 mm 2 mps 725 mmHg 54%
22:00 +5°C° 0 mm 2 mps 725 mmHg 56%
23:00 +5°C° 0 mm 2 mps 725 mmHg 59%

25 October, Sunday

Time Temperature Precipitation Wind Pressure Humidity
00:00 +6°C° 0 mm 1 mps 725 mmHg 61%
01:00 +5°C° 0 mm 1 mps 725 mmHg 63%
02:00 +5°C° 0 mm 1 mps 724 mmHg 64%
03:00 +5°C° 0 mm 1 mps 724 mmHg 65%
04:00 +5°C° 0 mm 1 mps 724 mmHg 65%
05:00 +5°C° 0 mm 1 mps 724 mmHg 65%
06:00 +6°C° 0 mm 1 mps 724 mmHg 59%
07:00 +7°C° 0 mm 1 mps 725 mmHg 53%
08:00 +9°C° 0 mm 1 mps 725 mmHg 46%
09:00 +11°C° 0 mm 1 mps 725 mmHg 41%
10:00 +13°C° 0 mm 1 mps 724 mmHg 35%
11:00 +14°C° 0 mm 0 mps 724 mmHg 29%
12:00 +15°C° 0 mm 0 mps 724 mmHg 27%
13:00 +15°C° 0 mm 0 mps 723 mmHg 25%
14:00 +16°C° 0 mm 0 mps 723 mmHg 24%
15:00 +16°C° 0 mm 1 mps 723 mmHg 26%
16:00 +15°C° 0 mm 1 mps 723 mmHg 28%
17:00 +14°C° 0 mm 1 mps 723 mmHg 29%
18:00 +13°C° 0 mm 1 mps 722 mmHg 32%
19:00 +12°C° 0 mm 1 mps 722 mmHg 36%
20:00 +10°C° 0 mm 1 mps 722 mmHg 39%
21:00 +10°C° 0 mm 1 mps 722 mmHg 40%
22:00 +9°C° 0 mm 1 mps 722 mmHg 41%
23:00 +8°C° 0 mm 1 mps 722 mmHg 43%
Show more